Northfield, Minnesota, United States (55057)
Lat: 44.46N, Lon: 93.16W
Wx Zone: MNZ077
Local Info
Past Weather Observations for Today

NOTE: This archive is for the closest National Weather Service station to Northfield. Information may differ from the station used for current weather conditions.

Click here for Long-term Archive

Time Weather Temperature Dewpoint Humidity Pressure Winds Precip Visibility
12:30
Clear
73°F / 23°C 57°F / 14°C 57% 30.18 in
(1022 mb)
NE 3.5 mph
(NE 6 kph)
- 10SM
12:11
Clear
73°F / 23°C 57°F / 14°C 57% 30.18 in
(1022 mb)
E 3.5 mph
(E 6 kph)
- 10SM
11:51
Clear
72°F / 22°C 55°F / 13°C 57% 30.21 in
(1023 mb)
N 3.5 mph
(N 6 kph)
- 10SM
11:31
Clear
72°F / 22°C 55°F / 13°C 57% 30.21 in
(1023 mb)
Calm - 10SM
11:10
Clear
72°F / 22°C 55°F / 13°C 57% 30.21 in
(1023 mb)
Calm - 10SM
10:51
Clear
72°F / 22°C 55°F / 13°C 57% 30.21 in
(1023 mb)
Calm - 10SM
10:31
Clear
70°F / 21°C 55°F / 13°C 60% 30.21 in
(1023 mb)
Calm - 10SM
10:10
Clear
70°F / 21°C 55°F / 13°C 60% 30.21 in
(1023 mb)
Calm - 10SM
09:51
Partly Cloudy
68°F / 20°C 55°F / 13°C 64% 30.21 in
(1023 mb)
Calm - 10SM
09:31
Overcast
68°F / 20°C 55°F / 13°C 64% 30.21 in
(1023 mb)
Calm - 10SM
09:10
Mostly Cloudy
68°F / 20°C 55°F / 13°C 64% 30.21 in
(1023 mb)
SE 5.8 mph
(SE 9 kph)
- 10SM
08:51
Clear
66°F / 19°C 55°F / 13°C 68% 30.21 in
(1023 mb)
E 4.6 mph
(E 7 kph)
- 10SM
08:31
Partly Cloudy
66°F / 19°C 55°F / 13°C 68% 30.21 in
(1023 mb)
E 5.8 mph
(E 9 kph)
- 10SM
08:10
Partly Cloudy
66°F / 19°C 57°F / 14°C 73% 30.21 in
(1023 mb)
ENE 5.8 mph
(ENE 9 kph)
- 10SM
07:51
Clear
64°F / 18°C 57°F / 14°C 78% 30.21 in
(1023 mb)
E 5.8 mph
(E 9 kph)
- 10SM
07:31
Partly Cloudy
64°F / 18°C 57°F / 14°C 78% 30.21 in
(1023 mb)
E 5.8 mph
(E 9 kph)
- 10SM
07:11
Overcast
63°F / 17°C 57°F / 14°C 83% 30.18 in
(1022 mb)
NE 3.5 mph
(NE 6 kph)
- 10SM
06:50
Mostly Cloudy
61°F / 16°C 57°F / 14°C 88% 30.18 in
(1022 mb)
ENE 3.5 mph
(ENE 6 kph)
- 10SM
06:31
Mostly Cloudy
61°F / 16°C 57°F / 14°C 88% 30.18 in
(1022 mb)
NE 3.5 mph
(NE 6 kph)
- 10SM
06:11
Overcast
61°F / 16°C 57°F / 14°C 88% 30.18 in
(1022 mb)
Calm - 10SM
05:50
Mostly Cloudy
59°F / 15°C 57°F / 14°C 94% 30.18 in
(1022 mb)
N 3.5 mph
(N 6 kph)
- 10SM
05:31
Mostly Cloudy
59°F / 15°C 55°F / 13°C 88% 30.18 in
(1022 mb)
N 4.6 mph
(N 7 kph)
- 10SM
05:11
Mostly Cloudy
59°F / 15°C 57°F / 14°C 94% 30.18 in
(1022 mb)
N 3.5 mph
(N 6 kph)
- 10SM
04:50
Mostly Cloudy
59°F / 15°C 57°F / 14°C 94% 30.15 in
(1021 mb)
Calm - 10SM
04:31
Mostly Cloudy
61°F / 16°C 57°F / 14°C 88% 30.15 in
(1021 mb)
Calm - 10SM
04:11
Overcast
61°F / 16°C 57°F / 14°C 88% 30.18 in
(1022 mb)
NE 4.6 mph
(NE 7 kph)
- 10SM
03:50
Mostly Cloudy
61°F / 16°C 57°F / 14°C 88% 30.18 in
(1022 mb)
Calm - 10SM
03:31
Overcast
61°F / 16°C 57°F / 14°C 88% 30.18 in
(1022 mb)
ENE 4.6 mph
(ENE 7 kph)
- 10SM
03:11
Mostly Cloudy
63°F / 17°C 57°F / 14°C 83% 30.18 in
(1022 mb)
NE 8.1 mph
(NE 13 kph)
- 10SM
02:51
Overcast
63°F / 17°C 59°F / 15°C 88% 30.18 in
(1022 mb)
NE 4.6 mph
(NE 7 kph)
- 10SM
02:31
Overcast
63°F / 17°C 59°F / 15°C 88% 30.18 in
(1022 mb)
NE 3.5 mph
(NE 6 kph)
- 10SM
02:11
Overcast
63°F / 17°C 59°F / 15°C 88% 30.18 in
(1022 mb)
N 4.6 mph
(N 7 kph)
- 10SM
01:51
Overcast
63°F / 17°C 59°F / 15°C 88% 30.18 in
(1022 mb)
N 3.5 mph
(N 6 kph)
- 10SM
01:30
Overcast
63°F / 17°C 61°F / 16°C 94% 30.18 in
(1022 mb)
NW 3.5 mph
(NW 6 kph)
- 10SM
01:11
Overcast
63°F / 17°C 59°F / 15°C 88% 30.18 in
(1022 mb)
Calm - 10SM
00:51
Overcast
63°F / 17°C 59°F / 15°C 88% 30.18 in
(1022 mb)
Calm - 10SM
00:31
Overcast
63°F / 17°C 59°F / 15°C 88% 30.18 in
(1022 mb)
Calm - 10SM
00:11
Overcast
63°F / 17°C 59°F / 15°C 88% 30.18 in
(1022 mb)
Calm - 10SM
Time Weather Temperature Dewpoint Humidity Pressure Winds Precip Visibility


Weather for websites

WeatherForYou.com, LLC is not responsible for any damages or problems caused by this service. Current weather conditions are obtained from the closest station including government and personal stations which may have varying degrees of accuracy. Weather forecasts are derived from the NOAA NDFD. Like all things, this site belongs to Jesus Christ... He just trusts me to maintain it. If you have any questions or comments email webmaster@weatherforyou.com

Copyright © 2014, WeatherForYou.com LLC. All rights reserved.